EW1088 Weather Reports


Display with metric or nautical units.
time (UTC)temp
F
wind
direction
speed
MPH
gust
MPH
rain 1hr
in
rain 24hr
in
rain mn
in
humidity
%
barometer
mb
20260504043939 42 88 1.0 3.0 0.04 0.09 0.09 91 1017.0
20260504043435 42 88 3.0 8.0 0.04 0.08 0.08 90 1017.1
20260504042935 42 96 3.0 8.0 0.04 0.08 0.08 90 1017.0
20260504042436 42 1 2.0 6.0 0.05 0.08 0.08 90 1017.1
20260504041934 42 1 2.0 6.0 0.04 0.07 0.07 90 1017.1
20260504041437 42 68 2.0 7.0 0.04 0.07 0.07 89 1017.1
20260504041433 42 103 2.0 7.0 0.04 0.07 0.07 90 1017.1
20260504040433 42 89 1.0 5.0 0.05 0.07 0.07 89 1017.2
20260504035933 42 137 1.0 3.0 0.04 0.06 0.06 89 1017.3
20260504035430 43 137 1.0 3.0 0.03 0.05 0.05 87 1017.3
20260504034930 43 137 1.0 4.0 0.04 0.05 0.05 86 1017.3
20260504034432 43 166 4.0 9.0 0.04 0.05 0.05 83 1017.3
20260504034428 43 141 3.0 8.0 0.04 0.05 0.05 84 1017.3
20260504033429 43 155 5.0 10.0 0.03 0.04 0.04 84 1017.3
20260504032929 43 205 4.0 10.0 0.04 0.04 0.04 83 1017.4
20260504032535 44 101 2.0 7.0 0.03 0.03 0.03 86 1017.4
20260504032434 44 110 2.0 6.0 0.03 0.03 0.03 86 1017.4
20260504032429 43 96 2.0 9.0 0.03 0.03 0.03 85 1017.4
20260504030927 44 111 2.0 7.0 0.03 0.03 0.03 84 1017.4
20260504030427 44 96 3.0 8.0 0.02 0.02 0.02 85 1017.5
20260504025924 44 106 3.0 8.0 0.02 0.02 0.02 83 1017.4
20260504025424 44 79 2.0 4.0 0.02 0.02 0.02 83 1017.4
20260504024925 45 59 2.0 5.0 0.01 0.01 0.01 81 1017.5
20260504024425 45 108 3.0 8.0 0.01 0.01 0.01 80 1017.5
20260504023929 45 137 4.0 9.0 0.01 0.01 0.01 75 1017.4
20260504023925 45 158 3.0 8.0 0.01 0.01 0.01 76 1017.4
20260504022929 46 99 6.0 11.0 0.00 0.00 0.00 73 1017.4
20260504022925 45 1 5.0 10.0 0.00 0.00 0.00 75 1017.4
20260504021925 46 36 5.0 11.0 0.00 0.00 0.00 71 1017.4
20260504021424 46 126 3.0 8.0 0.00 0.00 0.00 71 1017.4
20260504020925 46 115 3.0 10.0 0.00 0.00 0.00 71 1017.3
20260504020429 47 140 5.0 10.0 0.00 0.00 0.00 66 1017.4
20260504020424 47 144 4.0 10.0 0.00 0.00 0.00 68 1017.4
20260504015425 47 151 4.0 10.0 0.00 0.00 0.00 64 1017.5
20260504014924 47 173 5.0 14.0 0.00 0.00 0.00 63 1017.4
20260504014424 48 157 6.0 14.0 0.00 0.00 0.00 61 1017.4
20260504013924 48 191 5.0 12.0 0.00 0.00 0.00 62 1017.4
20260504013424 48 170 5.0 12.0 0.00 0.00 0.00 61 1017.5
20260504012929 48 137 6.0 16.0 0.00 0.00 0.00 61 1017.5
20260504012925 48 166 6.0 13.0 0.00 0.00 0.00 61 1017.5
20260504011925 48 142 6.0 16.0 0.00 0.00 0.00 59 1017.5
20260504011425 49 176 6.0 14.0 0.00 0.00 0.00 58 1017.5
20260504010925 49 173 5.0 14.0 0.00 0.00 0.00 58 1017.5
20260504010425 49 124 5.0 10.0 0.00 0.00 0.00 57 1017.6
20260504005924 49 151 5.0 11.0 0.00 0.00 0.00 57 1017.7
20260504005428 49 168 4.0 11.0 0.00 0.00 0.00 57 1017.6
20260504005424 49 188 5.0 11.0 0.00 0.00 0.00 58 1017.6
20260504004423 49 152 4.0 11.0 0.00 0.00 0.00 57 1017.5
20260504003923 49 187 4.0 11.0 0.00 0.00 0.00 57 1017.5
20260504003421 49 184 6.0 14.0 0.00 0.00 0.00 57 1017.6
20260504002919 49 155 5.0 14.0 0.00 0.00 0.00 57 1017.5
20260504002414 49 157 6.0 18.0 0.00 0.00 0.00 57 1017.6
20260504001918 49 175 7.0 18.0 0.00 0.00 0.00 56 1017.6
20260504001914 49 189 9.0 18.0 0.00 0.00 0.00 57 1017.6
20260504000914 49 185 6.0 18.0 0.00 0.00 0.00 56 1017.6
20260504000416 49 158 5.0 15.0 0.00 0.00 0.00 55 1017.5
20260503235914 49 184 4.0 13.0 0.00 0.00 0.00 54 1017.6
20260503235414 49 179 6.0 12.0 0.00 0.00 0.00 54 1017.6
20260503234913 50 140 7.0 14.0 0.00 0.00 0.00 54 1017.7
20260503234415 50 207 5.0 14.0 0.00 0.00 0.00 53 1017.7
20260503234411 50 183 7.0 18.0 0.00 0.00 0.00 52 1017.7
20260503234015 50 154 5.0 14.0 0.00 0.00 0.00 53 1017.6
20260503233515 50 170 7.0 16.0 0.00 0.00 0.00 52 1017.7
20260503232409 51 182 8.0 15.0 0.00 0.00 0.00 50 1017.7
20260503232405 50 154 8.0 18.0 0.00 0.00 0.00 51 1017.7
20260503231405 51 117 7.0 13.0 0.00 0.00 0.00 50 1017.6
20260503230905 51 171 6.0 12.0 0.00 0.00 0.00 49 1017.7
20260503230409 51 158 6.0 15.0 0.00 0.00 0.00 48 1017.6
20260503230405 51 194 6.0 15.0 0.00 0.00 0.00 48 1017.7
20260503225400 51 164 7.0 13.0 0.00 0.00 0.00 48 1017.7
20260503224900 51 188 7.0 15.0 0.00 0.00 0.00 47 1017.9
20260503224401 51 129 7.0 15.0 0.00 0.00 0.00 47 1017.7
20260503223858 51 190 7.0 13.0 0.00 0.00 0.00 47 1017.7
20260503223358 51 164 7.0 13.0 0.00 0.00 0.00 47 1017.7
20260503222858 52 173 6.0 12.0 0.00 0.00 0.00 46 1017.7
20260503222356 52 187 7.0 17.0 0.00 0.00 0.00 46 1017.8
20260503221855 52 158 6.0 17.0 0.00 0.00 0.00 45 1017.8
20260503221352 52 202 5.0 11.0 0.00 0.00 0.00 46 1017.8
20260503220852 52 133 5.0 15.0 0.00 0.00 0.00 46 1017.9
20260503220352 52 175 6.0 15.0 0.00 0.00 0.00 46 1018.0
20260503215855 52 226 5.0 11.0 0.00 0.00 0.00 48 1018.1
20260503215850 52 162 5.0 11.0 0.00 0.00 0.00 46 1018.1
20260503214844 51 26 6.0 12.0 0.00 0.00 0.00 47 1018.0
20260503214344 51 174 6.0 13.0 0.00 0.00 0.00 47 1018.1
20260503213844 51 135 6.0 13.0 0.00 0.00 0.00 46 1018.1
20260503213344 51 198 6.0 12.0 0.00 0.00 0.00 47 1018.2
20260503212844 51 203 6.0 16.0 0.00 0.00 0.00 47 1018.1
20260503212345 51 200 7.0 16.0 0.00 0.00 0.00 47 1018.1
20260503211844 51 208 6.0 15.0 0.00 0.00 0.00 47 1018.1
20260503211344 51 195 6.0 15.0 0.00 0.00 0.00 47 1018.1
20260503210844 51 117 6.0 15.0 0.00 0.00 0.00 47 1018.1
20260503210344 51 142 6.0 10.0 0.00 0.00 0.00 48 1018.1
20260503205849 51 176 5.0 13.0 0.00 0.00 0.00 47 1018.3
20260503205845 51 200 6.0 10.0 0.00 0.00 0.00 47 1018.2
20260503204844 51 199 6.0 13.0 0.00 0.00 0.00 48 1018.3
20260503204344 51 145 6.0 15.0 0.00 0.00 0.00 47 1018.4
20260503203844 51 187 6.0 15.0 0.00 0.00 0.00 47 1018.3
20260503203344 51 129 6.0 15.0 0.00 0.00 0.00 48 1018.3
20260503202846 51 185 6.0 18.0 0.00 0.00 0.00 48 1018.3
20260503202345 51 183 6.0 18.0 0.00 0.00 0.00 48 1018.4
20260503201844 51 177 6.0 15.0 0.00 0.00 0.00 49 1018.4
20260503201344 51 179 8.0 16.0 0.00 0.00 0.00 48 1018.4
20260503200844 51 206 6.0 16.0 0.00 0.00 0.00 47 1018.5
20260503200346 51 193 6.0 16.0 0.00 0.00 0.00 48 1018.4
20260503195844 50 180 7.0 16.0 0.00 0.00 0.00 48 1018.4
20260503195344 50 133 7.0 15.0 0.00 0.00 0.00 50 1018.4
20260503194844 50 120 6.0 15.0 0.00 0.00 0.00 50 1018.3
20260503194338 50 154 6.0 12.0 0.00 0.00 0.00 50 1018.3
20260503193842 50 122 5.0 10.0 0.00 0.00 0.00 51 1018.6
20260503193838 50 118 5.0 11.0 0.00 0.00 0.00 51 1018.4
20260503192842 49 118 4.0 11.0 0.00 0.00 0.00 51 1018.6
20260503192838 49 127 5.0 11.0 0.00 0.00 0.00 51 1018.7
20260503191833 49 168 4.0 10.0 0.00 0.00 0.00 52 1018.6
20260503191334 49 118 3.0 8.0 0.00 0.00 0.00 52 1018.6
20260503190835 49 131 4.0 7.0 0.00 0.00 0.00 52 1018.7
20260503190829 49 141 3.0 7.0 0.00 0.00 0.00 52 1018.6
20260503185830 49 196 3.0 7.0 0.00 0.00 0.00 53 1018.7
20260503185332 48 114 3.0 9.0 0.00 0.00 0.00 53 1018.8
20260503185328 49 176 3.0 9.0 0.00 0.00 0.00 53 1018.6
20260503184933 49 167 3.0 7.0 0.00 0.00 0.00 53 1018.6
20260503184433 48 180 2.0 7.0 0.00 0.00 0.00 53 1018.5
20260503183326 48 115 3.0 6.0 0.00 0.00 0.00 53 1018.5
20260503182829 48 111 1.0 5.0 0.00 0.00 0.00 53 1018.5
20260503182825 48 142 2.0 6.0 0.00 0.00 0.00 53 1018.6
20260503181826 48 131 1.0 5.0 0.00 0.00 0.00 53 1018.6
20260503181328 48 160 1.0 5.0 0.00 0.00 0.00 53 1018.7
20260503181324 47 105 2.0 5.0 0.00 0.00 0.00 56 1018.7
20260503180926 47 106 1.0 5.0 0.00 0.00 0.00 54 1018.8
20260503175822 47 128 2.0 5.0 0.00 0.00 0.00 55 1018.8
20260503175324 47 111 3.0 8.0 0.00 0.00 0.00 55 1018.8
20260503175320 47 130 3.0 5.0 0.00 0.00 0.00 55 1018.8
20260503174320 47 125 3.0 8.0 0.00 0.00 0.00 55 1018.7
20260503173819 47 153 2.0 5.0 0.00 0.00 0.00 56 1018.9
20260503173320 47 174 3.0 6.0 0.00 0.00 0.00 56 1018.9
20260503172820 47 188 2.0 6.0 0.00 0.00 0.00 57 1018.9
20260503172320 46 118 2.0 6.0 0.00 0.00 0.00 57 1018.8
20260503171820 46 109 3.0 6.0 0.00 0.00 0.00 59 1019.0
20260503171319 45 76 3.0 7.0 0.00 0.00 0.00 59 1018.9
20260503170815 45 127 3.0 7.0 0.00 0.00 0.00 60 1018.9
20260503170315 45 53 3.0 7.0 0.00 0.00 0.00 60 1019.0
20260503150808 43 120 3.0 7.0 0.00 0.00 0.00 64 1019.2
20260503150803 43 62 2.0 5.0 0.00 0.00 0.00 65 1019.3
20260503150409 43 121 3.0 7.0 0.00 0.00 0.00 64 1019.2
20260503140259 43 52 4.0 9.0 0.00 0.00 0.00 64 1019.3
20260503131257 43 105 2.0 6.0 0.00 0.00 0.00 64 1019.4
20260503130757 43 1 2.0 7.0 0.00 0.00 0.00 64 1019.4
20260503130257 43 122 4.0 7.0 0.00 0.00 0.00 63 1019.4
20260503110751 44 149 5.0 14.0 0.00 0.00 0.00 62 1019.7
20260503110251 44 130 4.0 11.0 0.00 0.00 0.00 62 1019.6
20260503100253 45 149 4.0 11.0 0.00 0.00 0.00 59 1019.4
20260503100249 45 161 5.0 13.0 0.00 0.00 0.00 58 1019.5
20260503090240 45 187 6.0 16.0 0.00 0.00 0.00 59 1019.2
20260503081234 46 112 7.0 14.0 0.00 0.00 0.00 57 1019.0
20260503080734 46 180 6.0 12.0 0.00 0.00 0.00 57 1018.9
20260503080341 46 124 6.0 16.0 0.00 0.00 0.00 56 1018.9
20260503080239 46 154 7.0 18.0 0.00 0.00 0.00 56 1018.8
20260503080235 46 195 6.0 18.0 0.00 0.00 0.00 56 1018.8
20260503072729 46 171 5.0 15.0 0.00 0.00 0.00 57 1018.6
20260503072229 46 160 4.0 11.0 0.00 0.00 0.00 56 1018.6
20260503071729 46 173 5.0 12.0 0.00 0.00 0.00 56 1018.7
20260503071229 46 179 6.0 14.0 0.00 0.00 0.00 56 1018.7
20260503070729 46 133 6.0 15.0 0.00 0.00 0.00 56 1018.5
20260503070229 46 170 6.0 15.0 0.00 0.00 0.00 56 1018.6
20260503054725 47 192 6.0 16.0 0.00 0.00 0.00 55 1018.0
20260503054225 47 174 7.0 16.0 0.00 0.00 0.00 56 1017.9
20260503053726 47 179 8.0 16.0 0.00 0.00 0.00 56 1017.9
20260503053224 47 183 7.0 16.0 0.00 0.00 0.00 57 1017.7
20260503052723 47 151 7.0 14.0 0.00 0.00 0.00 57 1017.8
20260503052224 47 188 8.0 14.0 0.00 0.00 0.00 56 1017.8
20260503052220 47 165 8.0 18.0 0.00 0.00 0.00 56 1017.7
20260503051219 47 188 8.0 18.0 0.00 0.00 0.00 56 1017.9
20260503050719 47 162 8.0 18.0 0.00 0.00 0.00 56 1017.7
20260503050218 47 166 7.0 15.0 0.00 0.00 0.00 56 1017.6
20260503045719 47 107 6.0 14.0 0.00 0.00 0.00 55 1017.5
20260503045217 47 143 7.0 20.0 0.00 0.00 0.00 55 1017.5
20260503044716 47 149 8.0 20.0 0.00 0.00 0.00 55 1017.4
20260503044210 47 172 7.0 14.0 0.00 0.00 0.00 54 1017.5